{"data":{"norad_id":67254,"epoch":"2026-05-24T22:35:19.944384Z","epoch_age_seconds":76779,"freshness":"FRESH","line1":"1 67254U 25313G   26144.94120306  .00028767  00000+0  34582-3 0  9994","line2":"2 67254  97.0838 222.4919 0006090 266.1083  93.9478 15.60798778 22980","mean_motion":15.60798778,"eccentricity":0.000609,"inclination_deg":97.0838,"raan_deg":222.4919,"arg_perigee_deg":266.1083,"mean_anomaly_deg":93.9478,"bstar":0.00034582,"rev_number":2298,"period_min":92.260451526315,"perigee_km":381.22954437878,"apogee_km":389.46746972637,"semimajor_km":6763.4855070526,"source":"CELESTRAK","updated_at":"2026-05-25T13:38:06.845355Z"}}